Simultaneous Nadir Overpasses (SNOs) Predictions

Prediction of SNOs between GOES-16 and TERRA Satellite Orbit:

Table of predicted SNOs for the next 14.0 days since TLE Epoch: 5/27/2023
Index Date Time (GOES-16) GOES-16 Lat,Lon TERRA Lat,Lon Distance(km) Time Diff (sec)
1 05/29/2023 02:52:08 0.02, -75.20 0.69, -71.88 377.36 80
2 05/29/2023 15:15:00 -0.01, -75.21 0.32, -76.79 179.57 80
3 05/31/2023 14:56:02 -0.01, -75.23 -0.50, -72.85 269.64 80
4 06/01/2023 03:19:03 0.01, -75.23 -0.56, -77.79 292.12 80
5 06/03/2023 03:00:05 0.01, -75.25 0.27, -73.86 157.29 80
6 06/03/2023 15:22:57 -0.01, -75.25 0.72, -78.77 399.54 80
7 06/05/2023 15:03:59 -0.02, -75.27 -0.13, -74.84 49.85 80
8 06/07/2023 14:47:40 -0.03, -75.29 -0.94, -70.89 499.40 80
9 06/08/2023 03:10:41 0.03, -75.30 -0.11, -75.84 62.07 80
10 06/10/2023 02:51:43 0.04, -75.33 0.78, -71.91 388.75 80
